Time,TemperatureF,DewpointF,PressureIn,WindDirection,WindDirectionDegrees,WindSpeedMPH,WindSpeedGustMPH,Humidity,HourlyPrecipIn,Conditions,Clouds,dailyrainin,SoftwareType,DateUTC
2013-11-01 00:00:00,64.2,58.9,29.86,SSE,157,0.0,0.0,83,0.00,,,0.02,WUHU21623XXSP,2013-11-01 04:00:00,
2013-11-01 00:05:00,64.2,58.9,29.86,SSE,157,0.0,0.0,83,0.00,,,0.00,WUHU21623XXSP,2013-11-01 04:05:00,
2013-11-01 00:10:00,64.2,58.9,29.86,SE,135,0.0,0.0,83,0.00,,,0.00,WUHU21623XXSP,2013-11-01 04:10:00,
2013-11-01 00:15:00,64.6,59.3,29.86,SSE,157,0.0,0.0,83,0.00,,,0.00,WUHU21623XXSP,2013-11-01 04:15:00,
2013-11-01 00:20:00,64.6,59.3,29.85,SSE,157,0.0,0.0,83,0.00,,,0.00,WUHU21623XXSP,2013-11-01 04:20:00,
2013-11-01 00:25:00,64.8,59.5,29.85,SE,135,0.0,0.0,83,0.00,,,0.00,WUHU21623XXSP,2013-11-01 04:25:00,
2013-11-01 00:30:00,64.8,59.1,29.84,SSE,157,0.0,0.0,82,0.00,,,0.00,WUHU21623XXSP,2013-11-01 04:30:00,
2013-11-01 00:35:00,64.9,59.3,29.84,SSE,157,0.0,0.0,82,0.00,,,0.00,WUHU21623XXSP,2013-11-01 04:35:00,
2013-11-01 00:40:00,64.9,59.3,29.85,SSE,157,0.0,0.0,82,0.00,,,0.00,WUHU21623XXSP,2013-11-01 04:40:00,
2013-11-01 00:45:00,65.1,59.5,29.84,ESE,112,0.0,0.0,82,0.00,,,0.00,WUHU21623XXSP,2013-11-01 04:45:00,
2013-11-01 00:50:00,65.1,59.1,29.85,West,270,0.0,0.2,81,0.00,,,0.00,WUHU21623XXSP,2013-11-01 04:50:00,
2013-11-01 00:55:00,65.1,59.1,29.85,ESE,112,0.0,0.2,81,0.00,,,0.00,WUHU21623XXSP,2013-11-01 04:55:00,
2013-11-01 01:00:00,65.3,59.3,29.84,South,180,0.0,0.0,81,0.00,,,0.00,WUHU21623XXSP,2013-11-01 05:00:00,
2013-11-01 01:05:00,65.3,59.3,29.84,South,180,0.0,0.0,81,0.00,,,0.00,WUHU21623XXSP,2013-11-01 05:05:00,
2013-11-01 01:10:00,65.3,59.3,29.84,WNW,292,7.2,7.2,81,0.00,,,0.00,WUHU21623XXSP,2013-11-01 05:10:00,
2013-11-01 01:15:00,65.3,59.3,29.84,South,180,0.0,7.2,81,0.00,,,0.00,WUHU21623XXSP,2013-11-01 05:15:00,
2013-11-01 01:21:00,65.3,59.3,29.83,SSE,157,0.0,0.0,81,0.00,,,0.00,WUHU21623XXSP,2013-11-01 05:21:00,
2013-11-01 01:26:00,65.3,59.3,29.82,SSE,157,0.0,0.0,81,0.00,,,0.00,WUHU21623XXSP,2013-11-01 05:26:00,
2013-11-01 01:31:00,65.3,59.3,29.82,SSE,157,0.0,0.0,81,0.00,,,0.00,WUHU21623XXSP,2013-11-01 05:31:00,
2013-11-01 01:36:00,65.5,59.5,29.83,SSE,157,0.0,0.0,81,0.00,,,0.00,WUHU21623XXSP,2013-11-01 05:36:00,
2013-11-01 01:41:00,65.5,59.5,29.82,East,90,0.0,0.0,81,0.00,,,0.00,WUHU21623XXSP,2013-11-01 05:41:00,
2013-11-01 01:46:00,65.5,59.3,29.82,East,90,0.0,0.0,81,0.00,,,0.00,WUHU21623XXSP,2013-11-01 05:46:00,
2013-11-01 01:51:00,65.3,59.3,29.82,SSE,157,0.0,0.7,81,0.00,,,0.00,WUHU21623XXSP,2013-11-01 05:51:00,
2013-11-01 01:56:00,65.5,59.5,29.82,SSE,157,0.0,0.7,81,0.00,,,0.00,WUHU21623XXSP,2013-11-01 05:56:00,
2013-11-01 02:01:00,65.3,59.7,29.82,SSE,157,0.0,0.0,82,0.00,,,0.00,WUHU21623XXSP,2013-11-01 06:01:00,
2013-11-01 02:06:00,65.1,59.7,29.82,SSE,157,0.0,0.0,82,0.00,,,0.00,WUHU21623XXSP,2013-11-01 06:06:00,
2013-11-01 02:11:00,64.9,59.5,29.83,SSE,157,0.0,0.0,83,0.00,,,0.00,WUHU21623XXSP,2013-11-01 06:11:00,
2013-11-01 02:16:00,64.6,59.3,29.83,SSE,157,0.0,0.0,83,0.00,,,0.00,WUHU21623XXSP,2013-11-01 06:16:00,
2013-11-01 02:21:00,64.4,59.5,29.83,SSE,157,0.0,0.0,84,0.00,,,0.00,WUHU21623XXSP,2013-11-01 06:21:00,
2013-11-01 02:26:00,64.2,59.3,29.82,SSE,157,0.0,0.0,85,0.00,,,0.00,WUHU21623XXSP,2013-11-01 06:26:00,
2013-11-01 02:31:00,64.0,59.5,29.82,ESE,112,0.0,0.0,85,0.00,,,0.00,WUHU21623XXSP,2013-11-01 06:31:00,
2013-11-01 02:36:00,63.9,59.6,29.82,ESE,112,0.0,0.0,86,0.00,,,0.00,WUHU21623XXSP,2013-11-01 06:36:00,
2013-11-01 02:41:00,63.7,59.4,29.82,ESE,112,0.0,0.0,86,0.00,,,0.00,WUHU21623XXSP,2013-11-01 06:41:00,
2013-11-01 02:46:00,63.7,59.4,29.82,ESE,112,0.0,0.0,86,0.00,,,0.00,WUHU21623XXSP,2013-11-01 06:46:00,
2013-11-01 02:51:00,63.5,59.3,29.82,ESE,112,0.0,0.0,86,0.00,,,0.00,WUHU21623XXSP,2013-11-01 06:51:00,
2013-11-01 02:56:00,63.5,59.3,29.82,ENE,67,0.0,0.0,86,0.00,,,0.00,WUHU21623XXSP,2013-11-01 06:56:00,
2013-11-01 03:01:00,63.3,59.1,29.82,ENE,67,0.0,0.0,86,0.00,,,0.00,WUHU21623XXSP,2013-11-01 07:01:00,
2013-11-01 03:06:00,63.3,59.1,29.81,ENE,67,0.0,0.0,86,0.00,,,0.00,WUHU21623XXSP,2013-11-01 07:06:00,
2013-11-01 03:11:00,63.3,59.4,29.81,ENE,67,0.0,0.0,87,0.00,,,0.00,WUHU21623XXSP,2013-11-01 07:11:00,
2013-11-01 03:16:00,63.1,59.6,29.81,ENE,67,0.0,0.0,88,0.00,,,0.00,WUHU21623XXSP,2013-11-01 07:16:00,
2013-11-01 03:21:00,63.1,59.6,29.81,ENE,67,0.0,0.0,88,0.00,,,0.00,WUHU21623XXSP,2013-11-01 07:21:00,
2013-11-01 03:26:00,63.1,59.6,29.80,ENE,67,0.0,0.0,88,0.00,,,0.00,WUHU21623XXSP,2013-11-01 07:26:00,
2013-11-01 03:31:00,63.1,59.6,29.80,ENE,67,0.0,0.0,89,0.00,,,0.00,WUHU21623XXSP,2013-11-01 07:31:00,
2013-11-01 03:36:00,63.1,59.9,29.80,ENE,67,0.0,0.0,89,0.00,,,0.00,WUHU21623XXSP,2013-11-01 07:36:00,
2013-11-01 03:41:00,63.1,59.9,29.80,ENE,67,0.0,0.0,89,0.00,,,0.00,WUHU21623XXSP,2013-11-01 07:41:00,
2013-11-01 03:46:00,63.1,59.9,29.79,East,90,0.0,0.0,89,0.02,,,0.02,WUHU21623XXSP,2013-11-01 07:46:00,
2013-11-01 03:51:00,63.1,59.9,29.79,ENE,67,0.0,0.0,89,0.02,,,0.02,WUHU21623XXSP,2013-11-01 07:51:00,
2013-11-01 03:56:00,63.1,59.9,29.79,ENE,67,0.0,0.0,89,0.02,,,0.02,WUHU21623XXSP,2013-11-01 07:56:00,
2013-11-01 04:01:00,63.1,59.9,29.79,ENE,67,0.0,0.0,89,0.02,,,0.02,WUHU21623XXSP,2013-11-01 08:01:00,
2013-11-01 04:06:00,63.1,59.9,29.78,East,90,0.0,0.0,89,0.02,,,0.02,WUHU21623XXSP,2013-11-01 08:06:00,
2013-11-01 04:11:00,63.1,59.9,29.78,WSW,247,0.0,0.0,89,0.02,,,0.02,WUHU21623XXSP,2013-11-01 08:11:00,
2013-11-01 04:17:00,63.1,59.6,29.78,WSW,247,0.0,0.0,88,0.02,,,0.02,WUHU21623XXSP,2013-11-01 08:17:00,
2013-11-01 04:22:00,63.0,59.4,29.78,West,270,0.0,0.0,88,0.02,,,0.02,WUHU21623XXSP,2013-11-01 08:22:00,
2013-11-01 04:27:00,62.8,59.2,29.77,WNW,292,0.0,0.0,88,0.02,,,0.02,WUHU21623XXSP,2013-11-01 08:27:00,
2013-11-01 04:32:00,62.8,59.2,29.77,WNW,292,0.0,0.0,88,0.02,,,0.02,WUHU21623XXSP,2013-11-01 08:32:00,
2013-11-01 04:37:00,62.6,59.0,29.78,WNW,292,0.0,0.0,88,0.02,,,0.02,WUHU21623XXSP,2013-11-01 08:37:00,
2013-11-01 04:42:00,62.4,58.9,29.78,WNW,292,0.0,0.0,88,0.02,,,0.02,WUHU21623XXSP,2013-11-01 08:42:00,
2013-11-01 04:47:00,62.4,58.9,29.77,WNW,292,0.0,0.0,88,0.02,,,0.04,WUHU21623XXSP,2013-11-01 08:47:00,
2013-11-01 04:52:00,62.4,58.9,29.77,WNW,292,0.0,0.0,88,0.02,,,0.04,WUHU21623XXSP,2013-11-01 08:52:00,
2013-11-01 04:57:00,62.4,58.9,29.77,WNW,292,0.0,0.0,88,0.02,,,0.04,WUHU21623XXSP,2013-11-01 08:57:00,
2013-11-01 05:02:00,62.2,58.7,29.77,WNW,292,0.0,0.0,88,0.02,,,0.04,WUHU21623XXSP,2013-11-01 09:02:00,
2013-11-01 05:07:00,62.2,58.7,29.77,WNW,292,0.0,0.0,88,0.02,,,0.04,WUHU21623XXSP,2013-11-01 09:07:00,
2013-11-01 05:12:00,62.2,58.7,29.78,WNW,292,0.0,0.0,88,0.02,,,0.04,WUHU21623XXSP,2013-11-01 09:12:00,
2013-11-01 05:17:00,62.2,58.7,29.78,NW,315,0.0,0.0,88,0.02,,,0.04,WUHU21623XXSP,2013-11-01 09:17:00,
2013-11-01 05:22:00,62.2,58.7,29.78,NW,315,0.0,0.0,88,0.02,,,0.04,WUHU21623XXSP,2013-11-01 09:22:00,
2013-11-01 05:27:00,62.2,59.0,29.79,NNE,22,0.0,0.0,89,0.04,,,0.06,WUHU21623XXSP,2013-11-01 09:27:00,
2013-11-01 05:32:00,62.2,59.0,29.80,NNE,22,0.0,0.0,89,0.06,,,0.06,WUHU21623XXSP,2013-11-01 09:32:00,
2013-11-01 05:37:00,62.2,59.0,29.80,NW,315,0.0,0.0,89,0.10,,,0.10,WUHU21623XXSP,2013-11-01 09:37:00,
2013-11-01 05:42:00,62.2,59.4,29.81,WNW,292,0.0,0.0,90,0.18,,,0.20,WUHU21623XXSP,2013-11-01 09:42:00,
2013-11-01 05:47:00,62.1,59.2,29.81,WNW,292,1.6,1.6,90,0.18,,,0.22,WUHU21623XXSP,2013-11-01 09:47:00,
2013-11-01 05:52:00,61.9,59.0,29.81,NW,315,1.3,1.6,90,0.20,,,0.22,WUHU21623XXSP,2013-11-01 09:52:00,
2013-11-01 05:57:00,61.7,58.8,29.81,NW,315,0.0,1.3,90,0.20,,,0.24,WUHU21623XXSP,2013-11-01 09:57:00,
2013-11-01 06:02:00,61.7,58.8,29.81,North,0,0.0,0.0,90,0.20,,,0.24,WUHU21623XXSP,2013-11-01 10:02:00,
2013-11-01 06:07:00,61.5,58.6,29.82,NNW,337,0.0,0.0,90,0.20,,,0.24,WUHU21623XXSP,2013-11-01 10:07:00,
2013-11-01 06:12:00,61.5,58.6,29.81,NNW,337,0.0,0.0,90,0.20,,,0.24,WUHU21623XXSP,2013-11-01 10:12:00,
2013-11-01 06:17:00,61.3,58.5,29.81,NNW,337,0.0,0.0,90,0.20,,,0.24,WUHU21623XXSP,2013-11-01 10:17:00,
2013-11-01 06:22:00,61.3,58.5,29.81,NNW,337,0.0,0.0,90,0.20,,,0.24,WUHU21623XXSP,2013-11-01 10:22:00,
2013-11-01 06:27:00,61.2,58.3,29.81,NNW,337,0.0,0.0,90,0.18,,,0.24,WUHU21623XXSP,2013-11-01 10:27:00,
2013-11-01 06:32:00,61.2,58.3,29.81,NNW,337,0.0,0.0,90,0.16,,,0.24,WUHU21623XXSP,2013-11-01 10:32:00,
2013-11-01 06:37:00,61.0,58.1,29.81,NNW,337,0.0,0.0,90,0.04,,,0.24,WUHU21623XXSP,2013-11-01 10:37:00,
2013-11-01 06:42:00,61.0,58.1,29.81,NNW,337,0.0,0.0,90,0.02,,,0.24,WUHU21623XXSP,2013-11-01 10:42:00,
2013-11-01 06:47:00,61.0,58.1,29.82,NNW,337,0.0,0.0,90,0.02,,,0.24,WUHU21623XXSP,2013-11-01 10:47:00,
2013-11-01 06:52:00,61.0,57.8,29.83,NNW,337,0.0,0.0,89,0.00,,,0.24,WUHU21623XXSP,2013-11-01 10:52:00,
2013-11-01 06:57:00,60.6,57.4,29.83,NNW,337,0.0,0.0,89,0.00,,,0.24,WUHU21623XXSP,2013-11-01 10:57:00,
2013-11-01 07:02:00,60.8,57.9,29.83,NNW,337,0.0,0.0,90,0.00,,,0.24,WUHU21623XXSP,2013-11-01 11:02:00,
2013-11-01 07:07:00,60.6,57.7,29.84,NNW,337,0.0,0.0,90,0.00,,,0.24,WUHU21623XXSP,2013-11-01 11:07:00,
2013-11-01 07:12:00,60.6,57.7,29.83,NNW,337,0.0,0.0,90,0.00,,,0.24,WUHU21623XXSP,2013-11-01 11:12:00,
2013-11-01 07:17:00,60.6,57.7,29.83,NNW,337,0.0,0.0,90,0.00,,,0.24,WUHU21623XXSP,2013-11-01 11:17:00,
2013-11-01 07:23:00,60.6,57.7,29.83,NNW,337,0.0,0.0,90,0.00,,,0.24,WUHU21623XXSP,2013-11-01 11:23:00,
2013-11-01 07:28:00,60.4,57.6,29.83,NNW,337,0.0,0.0,90,0.00,,,0.24,WUHU21623XXSP,2013-11-01 11:28:00,
2013-11-01 07:33:00,60.4,57.6,29.83,NNW,337,0.0,0.0,90,0.00,,,0.24,WUHU21623XXSP,2013-11-01 11:33:00,
2013-11-01 07:38:00,60.4,57.6,29.83,NNW,337,0.0,0.0,90,0.00,,,0.24,WUHU21623XXSP,2013-11-01 11:38:00,
2013-11-01 07:43:00,60.1,57.2,29.83,NNW,337,0.0,0.0,90,0.00,,,0.24,WUHU21623XXSP,2013-11-01 11:43:00,
2013-11-01 07:48:00,60.1,57.2,29.84,NNW,337,0.0,0.0,90,0.00,,,0.24,WUHU21623XXSP,2013-11-01 11:48:00,
2013-11-01 07:53:00,59.9,57.0,29.84,NNW,337,0.0,0.0,90,0.00,,,0.24,WUHU21623XXSP,2013-11-01 11:53:00,
2013-11-01 07:58:00,59.9,57.0,29.84,NNW,337,0.0,0.0,90,0.00,,,0.24,WUHU21623XXSP,2013-11-01 11:58:00,
2013-11-01 08:03:00,59.9,57.0,29.85,NNW,337,0.0,0.0,90,0.00,,,0.24,WUHU21623XXSP,2013-11-01 12:03:00,
2013-11-01 08:08:00,59.7,56.8,29.85,NNW,337,0.0,0.0,90,0.00,,,0.24,WUHU21623XXSP,2013-11-01 12:08:00,
2013-11-01 08:13:00,59.5,56.7,29.85,NNW,337,0.0,0.0,90,0.00,,,0.24,WUHU21623XXSP,2013-11-01 12:13:00,
2013-11-01 08:18:00,59.5,56.7,29.85,NNW,337,0.0,0.0,90,0.00,,,0.24,WUHU21623XXSP,2013-11-01 12:18:00,
2013-11-01 08:23:00,59.4,56.5,29.85,NNW,337,0.0,0.0,90,0.00,,,0.24,WUHU21623XXSP,2013-11-01 12:23:00,
2013-11-01 08:28:00,59.2,56.3,29.85,NNW,337,0.0,0.0,90,0.00,,,0.24,WUHU21623XXSP,2013-11-01 12:28:00,
2013-11-01 08:33:00,59.2,56.3,29.85,NNW,337,0.0,0.0,90,0.00,,,0.24,WUHU21623XXSP,2013-11-01 12:33:00,
2013-11-01 08:38:00,58.8,55.9,29.85,NNW,337,0.0,0.0,90,0.00,,,0.24,WUHU21623XXSP,2013-11-01 12:38:00,
2013-11-01 08:43:00,58.8,55.9,29.85,NNW,337,0.0,0.0,90,0.00,,,0.24,WUHU21623XXSP,2013-11-01 12:43:00,
2013-11-01 08:48:00,58.8,55.9,29.85,NNW,337,0.0,0.0,90,0.00,,,0.24,WUHU21623XXSP,2013-11-01 12:48:00,
2013-11-01 08:53:00,58.8,55.9,29.85,NNW,337,0.0,0.0,90,0.00,,,0.24,WUHU21623XXSP,2013-11-01 12:53:00,
2013-11-01 08:58:00,58.8,55.9,29.85,NNW,337,0.0,0.0,90,0.00,,,0.24,WUHU21623XXSP,2013-11-01 12:58:00,
2013-11-01 09:03:00,58.8,55.9,29.85,NNW,337,0.0,0.0,90,0.00,,,0.24,WUHU21623XXSP,2013-11-01 13:03:00,
2013-11-01 09:08:00,58.8,55.9,29.85,NNW,337,0.0,0.0,90,0.00,,,0.24,WUHU21623XXSP,2013-11-01 13:08:00,
2013-11-01 09:13:00,58.8,55.9,29.85,NNW,337,0.0,0.0,90,0.00,,,0.24,WUHU21623XXSP,2013-11-01 13:13:00,
2013-11-01 09:18:00,59.2,56.3,29.86,NNW,337,0.0,0.0,90,0.00,,,0.24,WUHU21623XXSP,2013-11-01 13:18:00,
2013-11-01 09:23:00,59.4,56.5,29.86,NNW,337,0.0,0.0,90,0.00,,,0.24,WUHU21623XXSP,2013-11-01 13:23:00,
2013-11-01 09:28:00,59.5,56.7,29.86,NNW,337,0.0,0.0,90,0.00,,,0.24,WUHU21623XXSP,2013-11-01 13:28:00,
2013-11-01 09:33:00,59.7,56.8,29.87,NNW,337,0.0,0.0,90,0.00,,,0.24,WUHU21623XXSP,2013-11-01 13:33:00,
2013-11-01 09:38:00,60.1,57.2,29.86,NNW,337,0.0,0.0,90,0.00,,,0.24,WUHU21623XXSP,2013-11-01 13:38:00,
2013-11-01 09:43:00,60.6,57.7,29.86,NNW,337,0.0,0.0,90,0.00,,,0.24,WUHU21623XXSP,2013-11-01 13:43:00,
2013-11-01 09:48:00,61.0,58.1,29.86,NNW,337,0.0,0.0,90,0.00,,,0.24,WUHU21623XXSP,2013-11-01 13:48:00,
2013-11-01 09:53:00,61.3,58.5,29.86,NNW,337,0.0,0.0,90,0.00,,,0.24,WUHU21623XXSP,2013-11-01 13:53:00,
2013-11-01 09:58:00,61.3,58.5,29.86,NNW,337,0.0,0.0,90,0.00,,,0.24,WUHU21623XXSP,2013-11-01 13:58:00,
2013-11-01 10:03:00,61.5,58.3,29.86,NNW,337,0.0,0.0,89,0.00,,,0.24,WUHU21623XXSP,2013-11-01 14:03:00,
2013-11-01 10:08:00,61.7,58.3,29.86,NNW,337,0.0,0.0,89,0.00,,,0.24,WUHU21623XXSP,2013-11-01 14:08:00,
2013-11-01 10:13:00,61.9,58.3,29.86,NNW,337,0.0,0.0,88,0.00,,,0.24,WUHU21623XXSP,2013-11-01 14:13:00,
2013-11-01 10:18:00,62.2,58.7,29.86,NNW,337,0.0,0.0,88,0.00,,,0.24,WUHU21623XXSP,2013-11-01 14:18:00,
2013-11-01 10:23:00,62.6,58.5,29.86,NNW,337,0.0,0.0,87,0.00,,,0.24,WUHU21623XXSP,2013-11-01 14:23:00,
2013-11-01 10:28:00,62.8,58.5,29.86,WNW,292,0.0,0.0,86,0.00,,,0.24,WUHU21623XXSP,2013-11-01 14:28:00,
2013-11-01 10:33:00,63.1,58.9,29.86,WNW,292,0.0,0.0,85,0.00,,,0.24,WUHU21623XXSP,2013-11-01 14:33:00,
2013-11-01 10:38:00,63.3,58.4,29.86,WNW,292,0.0,0.0,84,0.00,,,0.24,WUHU21623XXSP,2013-11-01 14:38:00,
2013-11-01 10:43:00,63.3,57.7,29.85,SSW,202,0.0,0.0,82,0.00,,,0.24,WUHU21623XXSP,2013-11-01 14:43:00,
2013-11-01 10:49:00,63.3,57.4,29.85,SSW,202,0.0,0.0,81,0.00,,,0.24,WUHU21623XXSP,2013-11-01 14:49:00,
2013-11-01 10:54:00,63.1,56.8,29.85,West,270,0.0,0.0,80,0.00,,,0.24,WUHU21623XXSP,2013-11-01 14:54:00,
2013-11-01 10:59:00,62.8,56.5,29.84,West,270,0.0,0.0,80,0.00,,,0.24,WUHU21623XXSP,2013-11-01 14:59:00,
2013-11-01 11:04:00,62.4,56.5,29.84,West,270,0.0,0.0,81,0.00,,,0.24,WUHU21623XXSP,2013-11-01 15:04:00,
2013-11-01 11:09:00,62.2,56.5,29.85,West,270,0.0,0.0,80,0.00,,,0.24,WUHU21623XXSP,2013-11-01 15:09:00,
2013-11-01 11:14:00,61.9,56.0,29.84,West,270,0.0,0.0,81,0.00,,,0.24,WUHU21623XXSP,2013-11-01 15:14:00,
2013-11-01 11:19:00,62.4,56.1,29.84,West,270,0.0,0.0,80,0.00,,,0.24,WUHU21623XXSP,2013-11-01 15:19:00,
2013-11-01 11:24:00,63.1,57.2,29.84,West,270,0.0,0.0,81,0.00,,,0.24,WUHU21623XXSP,2013-11-01 15:24:00,
2013-11-01 11:29:00,64.2,57.7,29.84,West,270,0.0,0.0,79,0.00,,,0.24,WUHU21623XXSP,2013-11-01 15:29:00,
2013-11-01 11:34:00,65.3,57.9,29.84,WNW,292,0.0,0.0,77,0.00,,,0.24,WUHU21623XXSP,2013-11-01 15:34:00,
2013-11-01 11:39:00,66.0,57.5,29.84,WNW,292,0.0,0.0,74,0.00,,,0.24,WUHU21623XXSP,2013-11-01 15:39:00,
2013-11-01 11:44:00,66.9,58.7,29.83,WNW,292,0.0,0.0,75,0.00,,,0.24,WUHU21623XXSP,2013-11-01 15:44:00,
2013-11-01 11:49:00,67.6,58.3,29.83,WNW,292,0.0,0.0,72,0.00,,,0.24,WUHU21623XXSP,2013-11-01 15:49:00,
2013-11-01 11:54:00,67.8,57.7,29.83,SSE,157,1.1,1.1,70,0.00,,,0.24,WUHU21623XXSP,2013-11-01 15:54:00,
2013-11-01 11:59:00,68.5,57.1,29.82,SE,135,0.0,1.1,67,0.00,,,0.24,WUHU21623XXSP,2013-11-01 15:59:00,
2013-11-01 12:04:00,68.7,56.7,29.83,North,0,0.0,0.0,66,0.00,,,0.24,WUHU21623XXSP,2013-11-01 16:04:00,
2013-11-01 12:09:00,69.1,57.6,29.83,NNW,337,0.0,0.0,67,0.00,,,0.24,WUHU21623XXSP,2013-11-01 16:09:00,
2013-11-01 12:14:00,70.0,58.0,29.83,NNW,337,0.0,0.0,66,0.00,,,0.24,WUHU21623XXSP,2013-11-01 16:14:00,
2013-11-01 12:19:00,70.3,57.6,29.83,SW,225,0.0,0.0,64,0.00,,,0.24,WUHU21623XXSP,2013-11-01 16:19:00,
2013-11-01 12:24:00,70.7,57.5,29.82,SSE,157,0.0,0.0,63,0.00,,,0.24,WUHU21623XXSP,2013-11-01 16:24:00,
2013-11-01 12:29:00,71.1,57.4,29.82,WSW,247,0.0,0.0,62,0.00,,,0.24,WUHU21623XXSP,2013-11-01 16:29:00,
2013-11-01 12:34:00,71.2,57.5,29.82,WSW,247,0.0,0.0,62,0.00,,,0.24,WUHU21623XXSP,2013-11-01 16:34:00,
2013-11-01 12:39:00,71.6,57.5,29.82,WSW,247,0.0,0.0,61,0.00,,,0.24,WUHU21623XXSP,2013-11-01 16:39:00,
2013-11-01 12:44:00,71.8,56.7,29.82,WSW,247,0.0,0.0,59,0.00,,,0.24,WUHU21623XXSP,2013-11-01 16:44:00,
2013-11-01 12:49:00,72.1,57.0,29.81,WSW,247,0.0,0.0,59,0.00,,,0.24,WUHU21623XXSP,2013-11-01 16:49:00,
2013-11-01 12:54:00,72.3,56.7,29.82,WSW,247,0.0,0.0,58,0.00,,,0.24,WUHU21623XXSP,2013-11-01 16:54:00,
2013-11-01 12:59:00,72.5,56.3,29.81,WSW,247,0.0,0.0,57,0.00,,,0.24,WUHU21623XXSP,2013-11-01 16:59:00,
2013-11-01 13:04:00,72.7,57.0,29.81,WSW,247,0.0,0.0,58,0.00,,,0.24,WUHU21623XXSP,2013-11-01 17:04:00,
2013-11-01 13:09:00,72.9,56.1,29.81,WSW,247,0.0,0.0,56,0.00,,,0.24,WUHU21623XXSP,2013-11-01 17:09:00,
2013-11-01 13:15:00,73.2,57.0,29.81,WSW,247,0.0,0.0,57,0.00,,,0.24,WUHU21623XXSP,2013-11-01 17:15:00,
2013-11-01 13:20:00,73.2,56.5,29.81,WSW,247,0.0,0.0,56,0.00,,,0.24,WUHU21623XXSP,2013-11-01 17:20:00,
2013-11-01 13:25:00,73.8,57.0,29.81,WSW,247,0.0,0.0,56,0.00,,,0.24,WUHU21623XXSP,2013-11-01 17:25:00,
2013-11-01 13:30:00,73.6,55.8,29.81,WSW,247,0.0,0.0,54,0.00,,,0.24,WUHU21623XXSP,2013-11-01 17:30:00,
2013-11-01 13:35:00,73.8,56.5,29.80,WSW,247,0.0,0.0,55,0.00,,,0.24,WUHU21623XXSP,2013-11-01 17:35:00,
2013-11-01 13:40:00,74.1,56.7,29.79,WSW,247,0.0,0.0,55,0.00,,,0.24,WUHU21623XXSP,2013-11-01 17:40:00,
2013-11-01 13:45:00,74.3,56.5,29.80,WSW,247,0.0,0.0,54,0.00,,,0.24,WUHU21623XXSP,2013-11-01 17:45:00,
2013-11-01 13:50:00,74.5,55.7,29.79,WSW,247,0.0,0.0,52,0.00,,,0.24,WUHU21623XXSP,2013-11-01 17:50:00,
2013-11-01 13:55:00,74.8,56.0,29.78,WSW,247,0.0,0.0,52,0.00,,,0.24,WUHU21623XXSP,2013-11-01 17:55:00,
2013-11-01 14:00:00,75.0,55.2,29.78,WNW,292,0.0,0.0,50,0.00,,,0.24,WUHU21623XXSP,2013-11-01 18:00:00,
2013-11-01 14:05:00,75.6,54.5,29.78,WNW,292,0.0,0.0,48,0.00,,,0.24,WUHU21623XXSP,2013-11-01 18:05:00,
2013-11-01 14:10:00,75.7,53.4,29.78,NNW,337,0.0,0.0,46,0.00,,,0.24,WUHU21623XXSP,2013-11-01 18:10:00,
2013-11-01 14:15:00,75.9,53.6,29.78,NW,315,0.0,0.0,46,0.00,,,0.24,WUHU21623XXSP,2013-11-01 18:15:00,
2013-11-01 14:20:00,76.5,54.1,29.77,NNE,22,0.0,0.0,46,0.00,,,0.24,WUHU21623XXSP,2013-11-01 18:20:00,
2013-11-01 14:25:00,76.6,53.6,29.77,NNW,337,0.0,0.0,45,0.00,,,0.24,WUHU21623XXSP,2013-11-01 18:25:00,
2013-11-01 14:30:00,76.6,54.2,29.77,WNW,292,0.0,0.0,46,0.00,,,0.24,WUHU21623XXSP,2013-11-01 18:30:00,
2013-11-01 14:35:00,76.8,53.2,29.76,WNW,292,0.0,0.0,44,0.00,,,0.24,WUHU21623XXSP,2013-11-01 18:35:00,
2013-11-01 14:40:00,76.8,53.2,29.76,WNW,292,0.0,0.0,44,0.00,,,0.24,WUHU21623XXSP,2013-11-01 18:40:00,
2013-11-01 14:45:00,77.2,54.1,29.76,NW,315,0.0,0.0,45,0.00,,,0.24,WUHU21623XXSP,2013-11-01 18:45:00,
2013-11-01 14:50:00,77.4,53.7,29.76,NW,315,0.0,0.0,44,0.00,,,0.24,WUHU21623XXSP,2013-11-01 18:50:00,
2013-11-01 14:55:00,77.4,53.7,29.76,WNW,292,0.0,0.0,44,0.00,,,0.24,WUHU21623XXSP,2013-11-01 18:55:00,
2013-11-01 15:00:00,77.4,53.1,29.76,North,0,0.0,0.0,43,0.00,,,0.24,WUHU21623XXSP,2013-11-01 19:00:00,
2013-11-01 15:05:00,77.4,52.4,29.75,North,0,0.0,0.0,42,0.00,,,0.24,WUHU21623XXSP,2013-11-01 19:05:00,
2013-11-01 15:10:00,77.4,53.1,29.75,NNW,337,0.0,0.0,43,0.00,,,0.24,WUHU21623XXSP,2013-11-01 19:10:00,
2013-11-01 15:15:00,77.5,52.6,29.75,NW,315,0.0,0.0,42,0.00,,,0.24,WUHU21623XXSP,2013-11-01 19:15:00,
2013-11-01 15:20:00,77.5,52.6,29.75,NW,315,0.0,0.0,42,0.00,,,0.24,WUHU21623XXSP,2013-11-01 19:20:00,
2013-11-01 15:25:00,77.4,52.4,29.74,WNW,292,0.0,0.0,42,0.00,,,0.24,WUHU21623XXSP,2013-11-01 19:25:00,
2013-11-01 15:30:00,77.2,52.9,29.74,WNW,292,0.0,0.0,43,0.00,,,0.24,WUHU21623XXSP,2013-11-01 19:30:00,
2013-11-01 15:35:00,77.2,52.9,29.74,NNW,337,0.0,0.0,43,0.00,,,0.24,WUHU21623XXSP,2013-11-01 19:35:00,
2013-11-01 15:40:00,77.0,52.7,29.74,NW,315,0.0,0.0,43,0.00,,,0.24,WUHU21623XXSP,2013-11-01 19:40:00,
2013-11-01 15:45:00,76.8,52.6,29.73,WNW,292,0.0,0.0,43,0.00,,,0.24,WUHU21623XXSP,2013-11-01 19:45:00,
2013-11-01 15:50:00,76.8,52.0,29.73,NW,315,0.0,0.0,42,0.00,,,0.24,WUHU21623XXSP,2013-11-01 19:50:00,
2013-11-01 15:56:00,76.5,52.3,29.73,North,0,0.0,0.0,43,0.00,,,0.24,WUHU21623XXSP,2013-11-01 19:56:00,
2013-11-01 16:01:00,75.9,51.2,29.73,NNE,22,0.0,0.0,42,0.00,,,0.24,WUHU21623XXSP,2013-11-01 20:01:00,
2013-11-01 16:06:00,75.6,51.4,29.73,NE,45,0.7,0.7,43,0.00,,,0.24,WUHU21623XXSP,2013-11-01 20:06:00,
2013-11-01 16:11:00,75.0,50.3,29.74,WNW,292,0.0,0.7,42,0.00,,,0.24,WUHU21623XXSP,2013-11-01 20:11:00,
2013-11-01 16:16:00,74.5,51.0,29.74,West,270,0.0,0.0,44,0.00,,,0.24,WUHU21623XXSP,2013-11-01 20:16:00,
2013-11-01 16:21:00,74.3,50.9,29.74,West,270,0.0,0.0,44,0.00,,,0.24,WUHU21623XXSP,2013-11-01 20:21:00,
2013-11-01 16:26:00,73.9,51.1,29.74,West,270,0.0,0.0,45,0.00,,,0.24,WUHU21623XXSP,2013-11-01 20:26:00,
2013-11-01 16:31:00,73.4,51.2,29.74,West,270,0.0,0.0,46,0.00,,,0.24,WUHU21623XXSP,2013-11-01 20:31:00,
2013-11-01 16:36:00,73.2,51.1,29.74,NW,315,0.0,0.0,46,0.00,,,0.24,WUHU21623XXSP,2013-11-01 20:36:00,
2013-11-01 16:41:00,72.5,50.4,29.74,NNW,337,0.0,0.0,46,0.00,,,0.24,WUHU21623XXSP,2013-11-01 20:41:00,
2013-11-01 16:46:00,72.1,50.1,29.74,NNW,337,0.0,0.0,46,0.00,,,0.24,WUHU21623XXSP,2013-11-01 20:46:00,
2013-11-01 16:51:00,71.8,50.4,29.74,WSW,247,0.0,0.0,47,0.00,,,0.24,WUHU21623XXSP,2013-11-01 20:51:00,
2013-11-01 16:56:00,71.4,50.0,29.75,WSW,247,0.0,0.0,47,0.00,,,0.24,WUHU21623XXSP,2013-11-01 20:56:00,
2013-11-01 17:01:00,71.2,50.5,29.75,South,180,0.0,0.0,48,0.00,,,0.24,WUHU21623XXSP,2013-11-01 21:01:00,
2013-11-01 17:06:00,70.9,50.7,29.75,WSW,247,0.0,0.0,49,0.00,,,0.24,WUHU21623XXSP,2013-11-01 21:06:00,
2013-11-01 17:11:00,70.5,49.2,29.75,NW,315,0.0,0.0,47,0.00,,,0.24,WUHU21623XXSP,2013-11-01 21:11:00,
2013-11-01 17:16:00,70.2,49.5,29.75,NW,315,1.6,1.6,48,0.00,,,0.24,WUHU21623XXSP,2013-11-01 21:16:00,
2013-11-01 17:21:00,69.8,49.2,29.76,NW,315,0.0,1.6,48,0.00,,,0.24,WUHU21623XXSP,2013-11-01 21:21:00,
2013-11-01 17:26:00,69.4,48.8,29.75,West,270,0.0,1.1,48,0.00,,,0.24,WUHU21623XXSP,2013-11-01 21:26:00,
2013-11-01 17:31:00,69.1,47.9,29.76,NW,315,0.0,0.0,47,0.00,,,0.24,WUHU21623XXSP,2013-11-01 21:31:00,
2013-11-01 17:36:00,68.7,47.6,29.76,West,270,0.0,0.0,47,0.00,,,0.24,WUHU21623XXSP,2013-11-01 21:36:00,
2013-11-01 17:41:00,68.2,47.7,29.76,NNE,22,0.0,0.0,48,0.00,,,0.24,WUHU21623XXSP,2013-11-01 21:41:00,
2013-11-01 17:46:00,67.8,48.0,29.76,WSW,247,0.0,0.0,49,0.00,,,0.24,WUHU21623XXSP,2013-11-01 21:46:00,
2013-11-01 17:51:00,67.6,47.8,29.76,WNW,292,0.0,2.0,49,0.00,,,0.24,WUHU21623XXSP,2013-11-01 21:51:00,
2013-11-01 17:56:00,67.1,47.3,29.76,NNW,337,0.0,2.0,49,0.00,,,0.24,WUHU21623XXSP,2013-11-01 21:56:00,
2013-11-01 18:01:00,66.9,47.8,29.76,NNW,337,0.9,0.9,50,0.00,,,0.24,WUHU21623XXSP,2013-11-01 22:01:00,
2013-11-01 18:06:00,66.6,47.4,29.77,East,90,0.0,0.9,50,0.00,,,0.24,WUHU21623XXSP,2013-11-01 22:06:00,
2013-11-01 18:11:00,66.0,47.4,29.77,North,0,1.6,1.6,51,0.00,,,0.24,WUHU21623XXSP,2013-11-01 22:11:00,
2013-11-01 18:16:00,65.8,46.8,29.77,NNW,337,0.0,1.6,50,0.00,,,0.24,WUHU21623XXSP,2013-11-01 22:16:00,
2013-11-01 18:21:00,65.5,46.4,29.77,NW,315,0.0,0.0,50,0.00,,,0.24,WUHU21623XXSP,2013-11-01 22:21:00,
2013-11-01 18:26:00,65.1,46.5,29.77,NNW,337,0.0,0.0,51,0.00,,,0.24,WUHU21623XXSP,2013-11-01 22:26:00,
2013-11-01 18:31:00,64.8,46.2,29.77,NNW,337,0.0,0.0,51,0.00,,,0.24,WUHU21623XXSP,2013-11-01 22:31:00,
2013-11-01 18:36:00,64.2,46.1,29.77,NW,315,0.0,0.0,52,0.00,,,0.24,WUHU21623XXSP,2013-11-01 22:36:00,
2013-11-01 18:41:00,63.9,45.8,29.77,NW,315,0.0,0.0,52,0.00,,,0.24,WUHU21623XXSP,2013-11-01 22:41:00,
2013-11-01 18:46:00,63.5,46.0,29.78,NW,315,0.0,0.0,53,0.00,,,0.24,WUHU21623XXSP,2013-11-01 22:46:00,
2013-11-01 18:51:00,63.0,46.0,29.78,WNW,292,0.0,0.0,54,0.00,,,0.24,WUHU21623XXSP,2013-11-01 22:51:00,
2013-11-01 18:56:00,62.8,45.3,29.78,WNW,292,0.0,0.0,53,0.00,,,0.24,WUHU21623XXSP,2013-11-01 22:56:00,
2013-11-01 19:02:00,62.4,45.5,29.78,WNW,292,0.0,0.0,54,0.00,,,0.24,WUHU21623XXSP,2013-11-01 23:02:00,
2013-11-01 19:07:00,62.1,45.3,29.78,WNW,292,0.0,0.0,54,0.00,,,0.24,WUHU21623XXSP,2013-11-01 23:07:00,
2013-11-01 19:12:00,61.7,45.3,29.78,WNW,292,0.0,0.0,55,0.00,,,0.24,WUHU21623XXSP,2013-11-01 23:12:00,
2013-11-01 19:17:00,61.3,45.0,29.78,WNW,292,0.0,0.0,55,0.00,,,0.24,WUHU21623XXSP,2013-11-01 23:17:00,
2013-11-01 19:22:00,61.0,45.6,29.79,WNW,292,0.0,0.0,57,0.00,,,0.24,WUHU21623XXSP,2013-11-01 23:22:00,
2013-11-01 19:27:00,60.6,45.8,29.79,NW,315,0.0,0.0,58,0.00,,,0.24,WUHU21623XXSP,2013-11-01 23:27:00,
2013-11-01 19:32:00,60.4,45.6,29.79,NW,315,0.0,0.0,58,0.00,,,0.24,WUHU21623XXSP,2013-11-01 23:32:00,
2013-11-01 19:37:00,60.1,45.7,29.79,NW,315,0.0,0.0,59,0.00,,,0.24,WUHU21623XXSP,2013-11-01 23:37:00,
2013-11-01 19:42:00,59.7,45.4,29.80,NW,315,0.0,0.0,59,0.00,,,0.24,WUHU21623XXSP,2013-11-01 23:42:00,
2013-11-01 19:47:00,59.5,45.2,29.80,NW,315,0.0,0.0,59,0.00,,,0.24,WUHU21623XXSP,2013-11-01 23:47:00,
2013-11-01 19:52:00,59.2,45.3,29.80,NW,315,0.0,0.0,60,0.00,,,0.24,WUHU21623XXSP,2013-11-01 23:52:00,
2013-11-01 19:57:00,58.8,45.0,29.80,NW,315,0.0,0.0,60,0.00,,,0.24,WUHU21623XXSP,2013-11-01 23:57:00,
2013-11-01 20:02:00,58.8,45.0,29.80,NW,315,0.0,0.0,60,0.00,,,0.24,WUHU21623XXSP,2013-11-02 00:02:00,
2013-11-01 20:07:00,58.6,45.2,29.80,NW,315,0.0,0.0,61,0.00,,,0.24,WUHU21623XXSP,2013-11-02 00:07:00,
2013-11-01 20:12:00,58.3,45.3,29.81,NW,315,0.0,0.0,62,0.00,,,0.24,WUHU21623XXSP,2013-11-02 00:12:00,
2013-11-01 20:17:00,57.9,45.0,29.81,NW,315,0.0,0.0,62,0.00,,,0.24,WUHU21623XXSP,2013-11-02 00:17:00,
2013-11-01 20:22:00,57.9,45.0,29.81,NW,315,0.0,0.0,62,0.00,,,0.24,WUHU21623XXSP,2013-11-02 00:22:00,
2013-11-01 20:27:00,57.6,44.6,29.81,NW,315,0.0,0.0,62,0.00,,,0.24,WUHU21623XXSP,2013-11-02 00:27:00,
2013-11-01 20:32:00,57.0,44.9,29.81,NW,315,0.0,0.0,63,0.00,,,0.24,WUHU21623XXSP,2013-11-02 00:32:00,
2013-11-01 20:37:00,57.0,44.9,29.81,NW,315,0.0,0.0,64,0.00,,,0.24,WUHU21623XXSP,2013-11-02 00:37:00,
2013-11-01 20:42:00,56.8,45.2,29.81,NW,315,0.0,0.0,65,0.00,,,0.24,WUHU21623XXSP,2013-11-02 00:42:00,
2013-11-01 20:47:00,56.5,45.2,29.81,NW,315,0.0,0.0,66,0.00,,,0.24,WUHU21623XXSP,2013-11-02 00:47:00,
2013-11-01 20:52:00,56.1,44.9,29.81,NW,315,0.0,0.0,66,0.00,,,0.24,WUHU21623XXSP,2013-11-02 00:52:00,
2013-11-01 20:57:00,55.9,45.1,29.81,NW,315,0.0,0.0,67,0.00,,,0.24,WUHU21623XXSP,2013-11-02 00:57:00,
2013-11-01 21:02:00,55.4,45.9,29.82,NW,315,0.0,0.0,70,0.00,,,0.24,WUHU21623XXSP,2013-11-02 01:02:00,
2013-11-01 21:07:00,55.2,45.7,29.82,NW,315,0.0,0.0,70,0.00,,,0.24,WUHU21623XXSP,2013-11-02 01:07:00,
2013-11-01 21:12:00,54.9,45.3,29.82,NW,315,0.0,0.0,70,0.00,,,0.24,WUHU21623XXSP,2013-11-02 01:12:00,
2013-11-01 21:17:00,54.7,45.5,29.82,NW,315,0.0,0.0,71,0.00,,,0.24,WUHU21623XXSP,2013-11-02 01:17:00,
2013-11-01 21:22:00,54.9,45.7,29.82,NW,315,0.0,0.0,71,0.00,,,0.24,WUHU21623XXSP,2013-11-02 01:22:00,
2013-11-01 21:27:00,55.0,45.8,29.82,NW,315,0.0,0.0,71,0.00,,,0.24,WUHU21623XXSP,2013-11-02 01:27:00,
2013-11-01 21:32:00,55.0,45.8,29.83,NW,315,0.0,0.0,71,0.00,,,0.24,WUHU21623XXSP,2013-11-02 01:32:00,
2013-11-01 21:37:00,54.9,45.8,29.82,NW,315,0.0,0.0,72,0.00,,,0.24,WUHU21623XXSP,2013-11-02 01:37:00,
2013-11-01 21:43:00,54.5,45.7,29.83,NW,315,0.0,0.0,72,0.00,,,0.24,WUHU21623XXSP,2013-11-02 01:43:00,
2013-11-01 21:48:00,54.3,45.8,29.83,NW,315,0.0,0.0,73,0.00,,,0.24,WUHU21623XXSP,2013-11-02 01:48:00,
2013-11-01 21:53:00,54.1,45.7,29.83,NW,315,0.0,0.0,73,0.00,,,0.24,WUHU21623XXSP,2013-11-02 01:53:00,
2013-11-01 21:58:00,54.0,45.8,29.83,NW,315,0.0,0.0,74,0.00,,,0.24,WUHU21623XXSP,2013-11-02 01:58:00,
2013-11-01 22:03:00,53.8,45.7,29.83,NW,315,0.0,0.0,74,0.00,,,0.24,WUHU21623XXSP,2013-11-02 02:03:00,
2013-11-01 22:08:00,53.4,45.3,29.83,NW,315,0.0,0.0,74,0.00,,,0.24,WUHU21623XXSP,2013-11-02 02:08:00,
2013-11-01 22:13:00,53.4,45.3,29.84,NW,315,0.0,0.0,74,0.00,,,0.24,WUHU21623XXSP,2013-11-02 02:13:00,
2013-11-01 22:18:00,53.4,45.3,29.84,NW,315,0.0,0.0,74,0.00,,,0.24,WUHU21623XXSP,2013-11-02 02:18:00,
2013-11-01 22:23:00,53.2,45.2,29.84,NW,315,0.0,0.0,74,0.00,,,0.24,WUHU21623XXSP,2013-11-02 02:23:00,
2013-11-01 22:28:00,52.9,45.2,29.84,NW,315,0.0,0.0,75,0.00,,,0.24,WUHU21623XXSP,2013-11-02 02:28:00,
2013-11-01 22:33:00,52.7,45.0,29.84,NW,315,0.0,0.0,75,0.00,,,0.24,WUHU21623XXSP,2013-11-02 02:33:00,
2013-11-01 22:38:00,52.5,44.8,29.84,NW,315,0.0,0.0,75,0.00,,,0.24,WUHU21623XXSP,2013-11-02 02:38:00,
2013-11-01 22:43:00,52.2,45.0,29.84,NW,315,0.0,0.0,76,0.00,,,0.24,WUHU21623XXSP,2013-11-02 02:43:00,
2013-11-01 22:48:00,52.0,45.0,29.84,NW,315,0.0,0.0,77,0.00,,,0.24,WUHU21623XXSP,2013-11-02 02:48:00,
2013-11-01 22:53:00,51.6,45.0,29.85,NW,315,0.0,0.0,78,0.00,,,0.24,WUHU21623XXSP,2013-11-02 02:53:00,
2013-11-01 22:58:00,51.4,45.2,29.85,NW,315,0.0,0.0,79,0.00,,,0.24,WUHU21623XXSP,2013-11-02 02:58:00,
2013-11-01 23:03:00,51.3,45.2,29.85,NW,315,0.0,0.0,79,0.00,,,0.24,WUHU21623XXSP,2013-11-02 03:03:00,
2013-11-01 23:08:00,51.1,44.8,29.85,NW,315,0.0,0.0,79,0.00,,,0.24,WUHU21623XXSP,2013-11-02 03:08:00,
2013-11-01 23:13:00,50.9,44.6,29.85,NW,315,0.0,0.0,79,0.00,,,0.24,WUHU21623XXSP,2013-11-02 03:13:00,
2013-11-01 23:18:00,50.9,44.6,29.85,NW,315,0.0,0.0,79,0.00,,,0.24,WUHU21623XXSP,2013-11-02 03:18:00,
2013-11-01 23:23:00,50.9,44.6,29.85,NW,315,0.0,0.0,79,0.00,,,0.24,WUHU21623XXSP,2013-11-02 03:23:00,
2013-11-01 23:28:00,50.9,44.6,29.85,NW,315,0.0,0.0,79,0.00,,,0.24,WUHU21623XXSP,2013-11-02 03:28:00,
2013-11-01 23:33:00,50.7,44.6,29.85,NW,315,0.0,0.0,79,0.00,,,0.24,WUHU21623XXSP,2013-11-02 03:33:00,
2013-11-01 23:38:00,50.7,44.8,29.85,NW,315,0.0,0.0,80,0.00,,,0.24,WUHU21623XXSP,2013-11-02 03:38:00,
2013-11-01 23:43:00,50.9,44.6,29.85,NW,315,0.0,0.0,79,0.00,,,0.24,WUHU21623XXSP,2013-11-02 03:43:00,
2013-11-01 23:48:00,50.9,44.6,29.85,NW,315,0.0,0.0,79,0.00,,,0.24,WUHU21623XXSP,2013-11-02 03:48:00,
2013-11-01 23:53:00,50.7,44.4,29.85,NW,315,0.0,0.0,79,0.00,,,0.24,WUHU21623XXSP,2013-11-02 03:53:00,
2013-11-01 23:58:00,50.7,44.4,29.85,NW,315,0.0,0.0,79,0.00,,,0.24,WUHU21623XXSP,2013-11-02 03:58:00,